Location: Unspecified
(0.0000°N, 0.0000°E)
Time: 18:44:21
(UTC+00:00)

Amsat-Oscar-6 - Pass Details

Date: 22 June 2019
Orbit: 1448 x 1454 km, 101.8° (Epoch: 22 August)

Event Time Altitude Azimuth Distance (km) Brightness Sun altitude
Rises 01:34:38 0° 59° (ENE) 4,546 ? -57.5°
Reaches altitude 10° 01:39:58 10° 88° (E) 3,571 ? -56.6°
Enters shadow 01:40:21 11° 91° (E) 3,532 ? -56.5°
